User: anonymous   Login
Location: Taupo
(38.6830°S, 176.0830°E)
Time: 16:23:49
(UTC+12:00)
Language:

Mayak - Orbit

View from above orbital plane
View from above orbital plane
View from above satellite
View from above satellite

Ground track
Ground track

The orbit data is extracted from the following two-line orbital elements,

1 42830U 17042F   19144.70777441  .00000533  00000-0  58156-4 0  9997
2 42830  97.5705  39.2298 0015240 134.1620 226.0855 14.91764942101247
Epoch (UTC): 24 May 2019 16:59:11
Eccentricity: 0.0015240
inclination: 97.5705°
perigee height: 582 km
apogee height: 603 km
right ascension of ascending node: 39.2298°
argument of perigee: 134.1620°
revolutions per day: 14.91764942
mean anomaly at epoch: 226.0855°
orbit number at epoch: 10124

The dashed part of the orbit path shows where the satellite is in the earth's shadow,  

DLR